This demonstration page uses our WeatherBlox Daily Observations layout. Learn more.

Left ArrowRight Arrow

38.20091, -84.87328

Hourly Observations for April 28, 2016

Temp ( °F °C ) Dew Point ( °F °C ) Humidity (%) Winds ( mph kmh ) Pressure ( in mb ) Visibility ( mi km ) Precip ( " mm )
12:00 am 00:00 Cloudy with Rain 62 16.7 59 15 90 90 Calm 29.83 1010 6 10 0.01 0.25
12:53 am 00:53 Cloudy with Light Rain 61 16.1 59 15 93 93 ESE 5 7 29.80 1009 8 13 0.14 3.56
1:53 am 01:53 Mostly Cloudy 61 16.1 59 15 93 93 ESE 3 6 29.77 1008 10 16 0.02 0.51
2:53 am 02:53 Cloudy 61 16.1 58 14.4 90 90 SSE 5 7 29.78 1008 10 16 0.00 0.00
3:38 am 03:38 Partly Cloudy 60 15.6 58 14.4 93 93 SE 3 6 29.77 1008 10 16 0.00 0.00
3:53 am 03:53 Mostly Cloudy 60 15.6 58 14.4 93 93 SSE 8 13 29.76 1008 10 16 0.00 0.00
4:32 am 04:32 Mostly Cloudy 60 15.6 58 14.4 93 93 SSE 3 6 29.77 1008 10 16 0.00 0.00
4:53 am 04:53 Cloudy 61 16.1 58 14.4 90 90 SSE 6 9 29.76 1008 7 11 0.00 0.00
5:53 am 05:53 Cloudy 61 16.1 58 14.4 90 90 SSE 7 11 29.78 1008 10 16 0.00 0.00
6:11 am 06:11 Cloudy 61 16.1 58 14.4 90 90 SSE 8 13 29.80 1009 10 16 0.00 0.00
6:45 am 06:45 Mostly Cloudy 61 16.1 58 14.4 90 90 S 6 9 29.80 1009 10 16 0.00 0.00
6:53 am 06:53 Mostly Cloudy 61 16.1 58 14.4 90 90 S 6 9 29.79 1009 10 16 0.00 0.00
7:53 am 07:53 Partly Cloudy 62 16.7 58 14.4 86 86 SSW 7 11 29.80 1009 10 16 0.00 0.00
8:15 am 08:15 Mostly Cloudy 62 16.7 58 14.4 86 86 SSW 7 11 29.83 1010 10 16 0.00 0.00
8:53 am 08:53 Mostly Cloudy 64 17.8 59 15 84 84 S 7 11 29.81 1009 10 16 0.00 0.00
9:53 am 09:53 Mostly Cloudy 68 20 62 16.7 81 81 SW 10 17 29.80 1009 10 16 0.00 0.00
10:53 am 10:53 Cloudy 69 20.6 62 16.7 78 78 SW 12 19 29.81 1010 10 16 0.00 0.00
11:01 am 11:01 Cloudy 70 21.1 62 16.7 76 76 WSW 12 19 29.80 1009 10 16 0.00 0.00
11:53 am 11:53 Partly Cloudy 72 22.2 61 16.1 68 68 SW 10 17 29.82 1010 10 16 0.00 0.00
12:01 pm 12:01 Mostly Cloudy 72 22.2 61 16.1 68 68 SW 12 19 29.80 1009 10 16 0.00 0.00
12:10 pm 12:10 Partly Cloudy 72 22.2 61 16.1 68 68 WSW 13 20 29.80 1009 10 16 0.00 0.00
12:53 pm 12:53 Partly Cloudy 75 23.9 61 16.1 62 62 SW 14 22 29.83 1010 10 16 0.00 0.00
1:53 pm 13:53 Partly Cloudy 77 25 60 15.6 56 56 WSW 10 17 29.82 1010 10 16 0.00 0.00
2:53 pm 14:53 Mostly Sunny 77 25 60 15.6 56 56 WSW 10 17 29.82 1010 10 16 0.01 0.25
3:53 pm 15:53 Mostly Sunny 78 25.6 59 15 52 52 SW 10 17 29.80 1009 10 16 0.00 0.00
4:53 pm 16:53 Mostly Cloudy 80 26.7 57 13.9 45 45 WSW 12 19 29.80 1009 10 16 0.00 0.00
5:53 pm 17:53 Mostly Sunny 79 26.1 52 11.1 39 39 WSW 14 22 29.81 1010 10 16 0.00 0.00
6:53 pm 18:53 Sunny 77 25 49 9.4 37 37 W 10 17 29.84 1010 10 16 0.00 0.00
7:53 pm 19:53 Sunny 74 23.3 45 7.2 36 36 WNW 8 13 29.85 1011 10 16 0.00 0.00
8:53 pm 20:53 Clear 70 21.1 45 7.2 41 41 WNW 5 7 29.88 1012 10 16 0.00 0.00
9:53 pm 21:53 Clear 68 20 45 7.2 44 44 NW 6 9 29.91 1013 10 16 0.00 0.00
10:53 pm 22:53 Clear 59 15 50 10 72 72 Calm 29.92 1013 10 16 0.00 0.00
11:53 pm 23:53 Clear 58 14.4 49 9.4 72 72 Calm 29.93 1014 10 16 0.00 0.00

Powered by AerisWeather